Mumbai, India

12:11 PM IST on February 25, 2018 (GMT +0530)
Chhatrapati Shivaji International

Weather History for VABB - September, 2012

Change the Weather History Date:

Monday, September 24, 2012

  Actual Average Record
Temperature  
Mean Temperature 81 °F -  
Max Temperature 87 °F 88 °F 91 °F (2000)
Min Temperature 75 °F 76 °F 73 °F (2016)
Cooling Degree Days 16    
Growing Degree Days 31 (Base 50)    
Moisture  
Dew Point 73 °F    
Average Humidity 74    
Maximum Humidity 94    
Minimum Humidity 54    
Precipitation  
Precipitation 0.28 in - - ()
Sea Level Pressure  
Sea Level Pressure 29.82 in    
Wind  
Wind Speed 5 mph ()    
Max Wind Speed 15 mph    
Max Gust Speed -    
Visibility 2.5 miles    
Events      
Averages and records for this station are not official NWS values.
T = Trace of Precipitation, MM = Missing Value Source: Averaged Metar Reports

Daily Weather History Graph

Daily Weather History Graph

Search for Another Location

Airport or City:

Trip Planner

Search our weather history database for the weather conditions in past years. The results will help you decide how hot, cold, wet, or windy it might be!

Date:

Astronomy

Sep. 24, 2012 Rise Set
Actual Time 6:27 AM IST 6:32 PM IST
Civil Twilight 6:06 AM IST 6:54 PM IST
Nautical Twilight 5:40 AM IST 7:20 PM IST
Astronomical Twilight 5:15 AM IST 7:45 PM IST
Moon 2:21 PM IST (9/24) 12:57 AM IST (9/24)
Length of Visible Light 12h 48m
Length of Day
12h 05m
Waxing Gibbous, 66% of the Moon is Illuminated
Sep 24
Waxing Gibbous
Sep 30
Full
Oct 8
Last Quarter
Oct 15
New
Oct 22
First Quarter

Hourly Weather History & Observations

Time (IST) Temp. Heat Index Dew Point Humidity Pressure Visibility Wind Dir Wind Speed Gust Speed Precip Events Conditions
12:10 AM 80.6 °F 85.4 °F 73.4 °F 79% 29.83 in 2.5 mi WSW 9.2 mph - N/A   Haze
12:40 AM 78.8 °F - 73.4 °F 83% 29.83 in 2.5 mi WSW 6.9 mph - N/A   Haze
1:10 AM 78.8 °F - 73.4 °F 83% 29.83 in 2.5 mi South 3.5 mph - N/A   Haze
1:40 AM 80.6 °F 85.4 °F 73.4 °F 79% 29.83 in 2.5 mi Calm Calm - N/A   Haze
2:10 AM 80.6 °F 85.4 °F 73.4 °F 79% 29.80 in 2.5 mi South 3.5 mph - N/A   Haze
2:30 AM 78 °F - 75 °F 86% 29.81 in 1 mi Calm Calm - -   Haze
2:40 AM 80.6 °F 85.4 °F 73.4 °F 79% 29.80 in 2.5 mi SW 4.6 mph - N/A   Haze
3:10 AM 80.6 °F 85.4 °F 73.4 °F 79% 29.80 in 2.5 mi SSE 4.6 mph - N/A   Haze
3:40 AM 78.8 °F - 75.2 °F 89% 29.80 in 2.5 mi East 4.6 mph - N/A   Haze
4:10 AM 78.8 °F - 75.2 °F 89% 29.80 in 2.5 mi Calm Calm - N/A   Haze
4:40 AM 78.8 °F - 75.2 °F 89% 29.80 in 2.5 mi East 4.6 mph - N/A   Haze
5:10 AM 78.8 °F - 75.2 °F 89% 29.80 in 2.5 mi Calm Calm - N/A   Haze
5:30 AM 76 °F - 74 °F 92% 29.82 in 1 mi Calm Calm - -   Haze
5:40 AM 77.0 °F - 75.2 °F 94% 29.83 in 2.5 mi ENE 4.6 mph - N/A   Haze
6:10 AM 77.0 °F - 75.2 °F 94% 29.83 in 2.2 mi Calm Calm - N/A   Haze
7:10 AM 77.0 °F - 75.2 °F 94% 29.83 in 1.9 mi Calm Calm - N/A   Haze
7:40 AM 78.8 °F - 75.2 °F 89% 29.86 in 1.9 mi Calm Calm - N/A   Haze
8:10 AM 80.6 °F 86.2 °F 75.2 °F 84% 29.86 in 1.6 mi Calm Calm - N/A   Haze
8:30 AM 82 °F - 75 °F 73% 29.88 in 1 mi Calm Calm - -   Haze
9:10 AM 82.4 °F 89.5 °F 75.2 °F 79% 29.89 in 2.2 mi Calm Calm - N/A   Haze
9:40 AM 82.4 °F 88.2 °F 73.4 °F 74% 29.89 in 2.2 mi South 6.9 mph - N/A   Haze
10:10 AM 82.4 °F 87.2 °F 71.6 °F 70% 29.89 in 2.2 mi WSW 8.1 mph - N/A   Haze
10:40 AM 82.4 °F 87.2 °F 71.6 °F 70% 29.89 in 2.5 mi WSW 11.5 mph - N/A   Haze
11:10 AM 82.4 °F 87.2 °F 71.6 °F 70% 29.89 in 2.5 mi West 9.2 mph - N/A   Haze
11:30 AM 84 °F - 72 °F 59% 29.88 in 1 mi West 4.6 mph - -   Smoke
11:40 AM 84.2 °F 90.9 °F 73.4 °F 70% 29.86 in 2.5 mi West 10.4 mph - N/A   Smoke
12:10 PM 84.2 °F 89.6 °F 71.6 °F 66% 29.86 in 2.5 mi WSW 10.4 mph - N/A   Smoke
12:40 PM 84.2 °F 89.6 °F 71.6 °F 66% 29.83 in 2.5 mi WSW 11.5 mph - N/A   Smoke
1:10 PM 84.2 °F 89.6 °F 71.6 °F 66% 29.83 in 2.8 mi West 12.7 mph - N/A   Smoke
2:10 PM 84.2 °F 90.9 °F 73.4 °F 70% 29.80 in 3.1 mi WSW 13.8 mph - N/A   Haze
2:30 PM 86 °F - 72 °F 54% 29.80 in 1 mi NW 6.9 mph - -   Smoke
2:40 PM 84.2 °F 89.6 °F 71.6 °F 66% 29.80 in 3.1 mi West 15.0 mph - N/A   Haze
3:10 PM 84.2 °F 89.6 °F 71.6 °F 66% 29.77 in 3.7 mi West 13.8 mph - N/A   Scattered Clouds
3:40 PM 84.2 °F 89.6 °F 71.6 °F 66% 29.77 in 3.7 mi West 11.5 mph - N/A   Partly Cloudy
4:10 PM 84.2 °F 88.4 °F 69.8 °F 62% 29.77 in 3.7 mi West 13.8 mph - N/A   Scattered Clouds
4:40 PM 84.2 °F 89.6 °F 71.6 °F 66% 29.77 in 3.7 mi West 13.8 mph - N/A   Scattered Clouds
5:10 PM 84.2 °F 89.6 °F 71.6 °F 66% 29.77 in 4.3 mi NW 9.2 mph - N/A   Partly Cloudy
5:30 PM 85 °F - 72 °F 56% 29.78 in 2 mi West 5.8 mph - -   Smoke
5:40 PM 84.2 °F 89.6 °F 71.6 °F 66% 29.77 in 4.3 mi West 8.1 mph - N/A   Partly Cloudy
6:10 PM 82.4 °F 87.2 °F 71.6 °F 70% 29.80 in 4.3 mi WNW 8.1 mph - N/A   Partly Cloudy
6:40 PM 82.4 °F 87.2 °F 71.6 °F 70% 29.80 in 3.7 mi WNW 9.2 mph - N/A   Partly Cloudy
7:40 PM 82.4 °F 87.2 °F 71.6 °F 70% 29.80 in 3.1 mi WNW 5.8 mph - N/A   Haze
8:10 PM 82.4 °F 87.2 °F 71.6 °F 70% 29.80 in 3.1 mi West 5.8 mph - N/A   Haze
8:30 PM 80 °F - 71 °F 69% 29.81 in 1 mi Calm Calm - -   Haze
8:40 PM 82.4 °F 87.2 °F 71.6 °F 70% 29.83 in 3.1 mi West 6.9 mph - N/A   Haze
9:10 PM 82.4 °F 86.3 °F 69.8 °F 66% 29.83 in 2.5 mi WNW 3.5 mph - N/A   Smoke
9:40 PM 82.4 °F 87.2 °F 71.6 °F 70% 29.83 in 2.5 mi WNW 3.5 mph - N/A   Smoke
10:10 PM 82.4 °F 87.2 °F 71.6 °F 70% 29.83 in 2.5 mi WNW 3.5 mph - N/A   Smoke
11:10 PM 82.4 °F 87.2 °F 71.6 °F 70% 29.83 in 2.5 mi Calm Calm - N/A   Smoke
11:30 PM 77 °F - 73 °F 83% 29.83 in 1 mi Calm Calm - -   Haze
11:40 PM 82.4 °F 87.2 °F 71.6 °F 70% 29.83 in 2.5 mi Calm Calm - N/A   Smoke